Weather History for Bolton Field, OH

Change the Weather History Date:

Monday, April 8, 2013

  Actual Average Record
Temperature  
Mean Temperature 62 °F -  
Max Temperature 71 °F 60 °F 82 °F (2001)
Min Temperature 52 °F 41 °F 26 °F (2007)
Degree Days  
Heating Degree Days 4    
Growing Degree Days 12 (Base 50)    
Moisture  
Dew Point 50 °F    
Average Humidity 72    
Maximum Humidity 90    
Minimum Humidity 49    
Precipitation  
Precipitation 0.00 in - - ()
Sea Level Pressure  
Sea Level Pressure 29.97 in    
Wind  
Wind Speed 6 mph (South)    
Max Wind Speed 22 mph    
Max Gust Speed 33 mph    
Visibility 10 miles    
Events Rain    
Averages and records for this station are not official NWS values.
T = Trace of Precipitation, MM = Missing Value Source: NWS Daily Summary

Daily Weather History Graph

Daily Weather History Graph

Search for Another Location

Airport:

Trip Planner

Search our weather history database for the weather conditions in past years. The results will help you decide how hot, cold, wet, or windy it might be!

Date:

Astronomy

Apr. 08, 2013 Rise Set
Actual Time 7:05 AM EDT 8:04 PM EDT
Civil Twilight 6:37 AM EDT 8:31 PM EDT
Nautical Twilight 6:04 AM EDT 9:04 PM EDT
Astronomical Twilight 5:30 AM EDT 9:38 PM EDT
Moon 5:54 AM EDT (4/8) 6:37 PM EDT (4/8)
Length of Visible Light 13h 54m
Length of Day
12h 58m
Waning Crescent, 3% of the Moon is Illuminated
Apr 8
Waning Crescent
Apr 10
New
Apr 18
First Quarter
Apr 25
Full
May 2
Last Quarter

Hourly Weather History & Observations

Time (EDT) Temp. Dew Point Humidity Pressure Visibility Wind Dir Wind Speed Gust Speed Precip Events Conditions
12:15 AM 59.2 °F 47.5 °F 65% 29.99 in 10.0 mi Calm Calm - N/A   Mostly Cloudy
12:35 AM 58.1 °F 47.3 °F 67% 29.99 in 10.0 mi Calm Calm - N/A   Overcast
12:55 AM 55.2 °F 46.8 °F 73% 30.00 in 10.0 mi WNW 3.5 mph - N/A   Overcast
1:15 AM 54.7 °F 47.3 °F 76% 30.01 in 10.0 mi Calm Calm - N/A   Overcast
1:35 AM 53.6 °F 45.9 °F 75% 30.01 in 10.0 mi SSW 4.6 mph - N/A   Overcast
1:55 AM 56.3 °F 48.2 °F 74% 30.01 in 10.0 mi South 4.6 mph - N/A   Light Drizzle
2:15 AM 55.4 °F 48.0 °F 76% 30.01 in 10.0 mi Calm Calm - N/A   Overcast
2:35 AM 54.7 °F 48.7 °F 80% 30.00 in 10.0 mi Calm Calm - N/A   Overcast
2:55 AM 56.7 °F 49.5 °F 77% 29.99 in 10.0 mi West 4.6 mph - N/A Rain Light Rain
3:15 AM 56.3 °F 49.6 °F 78% 29.98 in 10.0 mi WSW 4.6 mph - N/A   Overcast
3:35 AM 55.6 °F 50.0 °F 81% 29.98 in 10.0 mi WNW 5.8 mph - N/A   Overcast
3:55 AM 55.9 °F 50.2 °F 81% 29.98 in 10.0 mi WNW 4.6 mph - N/A   Overcast
4:15 AM 55.2 °F 50.0 °F 83% 29.98 in 10.0 mi SE 6.9 mph - N/A   Overcast
4:35 AM 54.0 °F 49.6 °F 85% 29.97 in 10.0 mi Calm Calm - N/A   Overcast
4:55 AM 52.3 °F 48.7 °F 88% 29.97 in 10.0 mi SE 6.9 mph - N/A   Mostly Cloudy
5:15 AM 52.5 °F 49.1 °F 88% 29.97 in 10.0 mi SE 5.8 mph - N/A   Mostly Cloudy
5:35 AM 52.7 °F 49.6 °F 89% 29.97 in 10.0 mi SE 4.6 mph - N/A   Overcast
5:55 AM 53.2 °F 50.0 °F 89% 29.97 in 10.0 mi SE 3.5 mph - N/A   Overcast
6:15 AM 53.4 °F 50.0 °F 88% 29.97 in 10.0 mi SE 4.6 mph - N/A   Overcast
6:35 AM 53.6 °F 50.4 °F 89% 29.97 in 10.0 mi SE 5.8 mph - N/A   Scattered Clouds
6:55 AM 53.8 °F 50.5 °F 89% 29.97 in 10.0 mi ESE 4.6 mph - N/A   Scattered Clouds
7:15 AM 52.7 °F 49.8 °F 90% 29.98 in 10.0 mi ESE 5.8 mph - N/A   Scattered Clouds
7:20 AM 53.6 °F 50.0 °F 88% 29.98 in 10.0 mi ESE 4.6 mph - N/A   Clear
7:50 AM 53.6 °F 50.0 °F 88% 29.98 in 10.0 mi SE 4.6 mph - N/A   Scattered Clouds
8:47 AM 55.4 °F 51.8 °F 88% 29.98 in 10.0 mi SE 8.1 mph - N/A   Scattered Clouds
9:47 AM 60.8 °F 48.2 °F 63% 29.97 in 10.0 mi South 11.5 mph 21.9 mph N/A   Overcast
10:47 AM 62.6 °F 48.2 °F 59% 29.96 in 10.0 mi South 12.7 mph - N/A   Overcast
11:50 AM 68.0 °F 48.2 °F 49% 29.95 in 10.0 mi South 16.1 mph 23.0 mph N/A   Overcast
12:50 PM 69.8 °F 50.0 °F 49% 29.92 in 10.0 mi South 16.1 mph 29.9 mph N/A   Scattered Clouds
1:50 PM 69.8 °F 50.0 °F 49% 29.92 in 10.0 mi SSW 19.6 mph 33.4 mph N/A   Overcast
2:50 PM 69.8 °F 50.0 °F 49% 29.91 in 10.0 mi SSW 21.9 mph 28.8 mph N/A   Overcast
3:55 PM 69.8 °F 51.8 °F 53% 29.90 in 10.0 mi SSW 13.8 mph 25.3 mph N/A   Overcast
4:50 PM 71.6 °F 51.8 °F 50% 29.89 in 10.0 mi SSW 20.7 mph 32.2 mph N/A   Overcast
5:50 PM 71.6 °F 51.8 °F 50% 29.89 in 10.0 mi SSW 20.7 mph 28.8 mph N/A   Overcast
7:35 PM 68.9 °F 52.2 °F 55% 29.92 in 10.0 mi SSW 20.7 mph 24.2 mph N/A   Clear
7:55 PM 68.0 °F 52.3 °F 57% 29.92 in 10.0 mi SSW 17.3 mph 21.9 mph N/A   Mostly Cloudy
8:15 PM 67.1 °F 52.7 °F 60% 29.92 in 10.0 mi SSW 19.6 mph 24.2 mph N/A   Scattered Clouds
8:35 PM 66.2 °F 52.7 °F 62% 29.93 in 10.0 mi SSW 16.1 mph 23.0 mph N/A   Clear
8:55 PM 65.7 °F 52.9 °F 63% 29.95 in 10.0 mi SSW 15.0 mph 21.9 mph N/A   Clear
9:15 PM 64.2 °F 52.9 °F 67% 29.95 in 10.0 mi South 16.1 mph - N/A   Clear
9:35 PM 64.6 °F 53.1 °F 66% 29.95 in 10.0 mi SSW 16.1 mph 24.2 mph N/A   Clear
9:55 PM 63.9 °F 53.1 °F 68% 29.97 in 10.0 mi SW 11.5 mph 17.3 mph N/A   Clear
10:15 PM 62.6 °F 52.9 °F 70% 29.98 in 10.0 mi SW 9.2 mph - N/A   Clear
10:35 PM 61.5 °F 52.7 °F 73% 29.98 in 10.0 mi SW 9.2 mph - N/A   Clear
10:55 PM 60.8 °F 52.9 °F 75% 29.99 in 10.0 mi SSW 9.2 mph - N/A   Clear
11:15 PM 59.7 °F 52.5 °F 77% 30.00 in 10.0 mi SW 6.9 mph - N/A   Clear
11:35 PM 59.7 °F 52.7 °F 78% 30.00 in 10.0 mi SW 9.2 mph - N/A   Clear
11:55 PM 59.2 °F 52.5 °F 79% 29.99 in 10.0 mi SW 10.4 mph - N/A   Clear